Chelsea Heart and Sole
Skip Navigation Links
10 May 2014
Send timing questions to rftiming@runningfit.com
Page 1 of 2 (57 items)
[1]2
Pos
Race No
Fav
Share
Print
Name
Time
Net Time
Category
Cat Pos
Gender
Gen Pos
City
State
Pace
1763Doug Mckibben00:39:31.400:39:28.5Overall1Male1 MI 21.0 m/hr
2761Scott Thomas00:39:32.600:39:32.540-491Male2 MI 20.9 m/hr
3759Terry Draper00:39:33.100:39:32.640-492Male3ChelseaMI 20.9 m/hr
4738Curt Steenbeke00:40:20.300:40:18.740-493Male4MunithMI 20.5 m/hr
5705Mike Coffman00:43:02.300:43:00.240-494Male5StockbridgeMI 19.3 m/hr
6749Matt West00:43:11.700:43:00.930-391Male6YpsilanitMI 19.2 m/hr
7701Jd Alford00:46:47.400:46:46.930-393Male7ChelseaMI 17.7 m/hr
8742Bryan Andrews00:46:54.900:46:46.430-392Male8GregoryMI 17.7 m/hr
9725Jonathan Rodgers00:49:39.900:49:31.060-691Male9Ann ArborMI 16.7 m/hr
10765Barry Shellgrove00:50:11.600:50:04.550-591Male10 MI 16.5 m/hr
11702James Alford, Jr.00:50:21.600:50:14.460-692Male11ChelseaMI 16.5 m/hr
12708Nick Helmholdt00:50:26.000:50:21.230-394Male12ChelseaMI 16.4 m/hr
13728Mark Skiff00:51:49.800:51:23.240-495Male13Whitmore LakeMI 16.1 m/hr
14707Eric Helber00:51:52.900:51:19.350-592Male14Ann ArborMI 16.1 m/hr
15731Luke Wilson00:52:53.700:52:37.320-291Male15Ann ArborMI 15.7 m/hr
16744Stacey Farneth00:53:46.900:53:34.9Overall1Female1YpsilanitMI 15.5 m/hr
17762Steve Balosh00:54:00.900:53:56.740-496Male16 MI 15.3 m/hr
18740Michelle Loveless00:54:41.100:54:24.220-291Female2Ann ArborMI 15.2 m/hr
19720Nick Olexa00:54:51.400:54:46.420-292Male17DexterMI 15.1 m/hr
20741Anthony Adkins00:55:03.100:54:53.030-395Male18StockbridgeMI 15.1 m/hr
21745Greg Hodder00:55:57.600:55:51.540-497Male19DexterMI 14.8 m/hr
22713Kelten Kint00:56:31.500:55:31.840-491Female3ChelseaMI 14.9 m/hr
23733Bryan Danek00:57:07.400:57:05.530-396Male20DexterMI 14.5 m/hr
24757James Alford00:58:38.700:58:30.340-498Male21ChelseaMI 14.2 m/hr
25724Steve Puuri01:00:17.600:59:57.950-593Male22DexterMI 13.8 m/hr
26714Scott Kint01:00:17.900:59:19.040-499Male23ChelseaMI 14.0 m/hr
27747Shanna Spickard01:00:39.601:00:32.140-492Female4SalineMI 13.7 m/hr
28758Monique Coffman01:03:37.601:03:32.040-493Female5StockbridgeMI 13.0 m/hr
29764Shannon Mcelroy01:03:40.601:03:36.720-292Female6 MI 13.0 m/hr
30736William Jasman01:04:09.501:04:08.430-398Male24TecumsehMI 12.9 m/hr
31756Harry Brodbeck01:04:13.601:03:54.850-594Male25ChelseaMI 13.0 m/hr
32746Emily Huddleston01:04:21.401:03:57.420-293Female7DexterMI 12.9 m/hr
33748Joseph Tutor01:04:22.901:03:59.820-294Male26Ann ArborMI 12.9 m/hr
34766Chris Barretto01:04:46.401:04:27.830-399Male27 MI 12.8 m/hr
35760Ethan Corkin-Howell01:04:48.001:02:13.014-191Male28 MI 13.3 m/hr
36755Jennifer Brant01:05:08.101:05:01.940-494Female8ChelseaMI 12.7 m/hr
37726Cathy Savoie01:06:24.201:05:45.350-591Female9BrightonMI 12.6 m/hr
38712Marc Keezer01:07:10.901:06:54.240-4910Male29ChelseaMI 12.4 m/hr
39737Sarah Mabley01:07:13.501:07:00.630-391Female10Ann ArborMI 12.4 m/hr
40704Tony Barnabo01:07:22.901:01:19.830-397Male30Whitmore LakeMI 13.5 m/hr
41734Samantha Danek01:07:27.501:07:24.430-392Female11DexterMI 12.3 m/hr
42732Kelly Bauer01:07:46.801:07:34.630-393Female12Ann ArborMI 12.3 m/hr
43717Duane Moss01:09:53.001:09:37.340-4911Male31DexterMI 11.9 m/hr
44729Ted Stilber01:09:56.101:09:42.040-4912Male32DexterMI 11.9 m/hr
45718Mark Nelson01:10:33.701:10:19.040-4913Male33DexterMI 11.8 m/hr
46768Christopher Falzone01:10:34.001:03:37.820-293Male34 MI 13.0 m/hr
47706Zach Dickman01:11:02.001:04:58.620-295Male35Whitmore LakeMI 12.7 m/hr
48719Josh Norman01:12:07.401:06:00.630-3910Male36PinckneyMI 12.5 m/hr
49735Sarah Faix01:16:56.401:15:17.430-394Female13YpsilantiMI 11.0 m/hr
50703James Anderson01:18:40.201:12:31.120-296Male37PinckneyMI 11.4 m/hr
Page 1 of 2 (57 items)
[1]2
fb